Hundvaag 1 weather for Jan 1995
Month no. 91
Obs.
Da.
Temp. Dew Point Precip. Wind
Speed
Wind gusts Cloud cover Press. Humidity Wind dir. Sunny OPT
01.01.1995 0,0   4,9     3       1  
02.01.1995 1,0   0,0     10          
03.01.1995 -4,0   0,0     10          
04.01.1995 1,1   0,0     2          
05.01.1995 2,0   0,0     0          
06.01.1995 -0,2   0,1     0          
07.01.1995 1,9   0,8     0          
08.01.1995 4,2   18,5     9       1  
09.01.1995 3,6   3,9     0          
10.01.1995 1,4   19,0     0          
11.01.1995 0,2   4,1     8          
12.01.1995 2,0   6,9     10          
13.01.1995 1,5   2,2     0          
14.01.1995 6,0   3,8     0          
15.01.1995 1,2   3,6     9       1  
16.01.1995 6,3   2,5     0          
17.01.1995 5,0   6,2     0          
18.01.1995 4,3   10,0     0          
19.01.1995 3,1   3,0     9          
20.01.1995 3,3   6,1     0          
21.01.1995 4,3   10,9     0       1  
22.01.1995 2,0   3,0     0       1  
23.01.1995 0,6   5,9     0          
24.01.1995 0,8   1,0     10          
25.01.1995 1,2   5,0     10          
26.01.1995 -2,8   4,1     10          
27.01.1995 -0,2   4,9     0          
28.01.1995 -0,1   1,0     1       1  
29.01.1995 -3,2   0,0     3       1  
30.01.1995 -1,2   0,5     10       1  
31.01.1995 0,0   0,0     0          
Avrg/Sum 1,5   131,9     3,7       8